Time,TemperatureF,DewpointF,PressureIn,WindDirection,WindDirectionDegrees,WindSpeedMPH,WindSpeedGustMPH,Humidity,HourlyPrecipIn,Conditions,Clouds,dailyrainin,SoftwareType,DateUTC
2013-01-01 00:10:00,60.3,57.0,30.22,SE,146,0.0,1.0,89,0.00,,,0.00,Wunderground v.1.15,2013-01-01 05:10:00,
2013-01-01 00:15:00,59.9,56.6,30.22,SE,141,0.0,1.0,89,0.00,,,0.00,Wunderground v.1.15,2013-01-01 05:15:00,
2013-01-01 00:20:00,59.7,56.8,30.22,SE,141,0.0,1.0,90,0.00,,,0.00,Wunderground v.1.15,2013-01-01 05:20:00,
2013-01-01 00:25:00,59.6,56.7,30.22,SE,141,0.0,1.0,90,0.00,,,0.00,Wunderground v.1.15,2013-01-01 05:25:00,
2013-01-01 00:35:00,59.6,56.7,30.22,SE,142,0.0,1.0,90,0.00,,,0.00,Wunderground v.1.15,2013-01-01 05:35:00,
2013-01-01 00:40:00,59.7,56.8,30.21,SE,142,0.0,1.0,90,0.00,,,0.00,Wunderground v.1.15,2013-01-01 05:40:00,
2013-01-01 00:45:00,59.8,56.9,30.21,SE,142,0.0,1.0,90,0.00,,,0.00,Wunderground v.1.15,2013-01-01 05:45:00,
2013-01-01 00:50:00,59.8,56.9,30.21,SE,142,0.0,1.0,90,0.00,,,0.00,Wunderground v.1.15,2013-01-01 05:50:00,
2013-01-01 00:55:00,59.8,56.9,30.21,SE,142,0.0,1.0,90,0.00,,,0.00,Wunderground v.1.15,2013-01-01 05:55:00,
2013-01-01 01:00:00,59.8,57.2,30.21,SE,142,0.0,0.0,91,0.00,,,0.00,Wunderground v.1.15,2013-01-01 06:00:00,
2013-01-01 01:10:00,59.7,56.8,30.21,SE,142,0.0,0.0,90,0.00,,,0.00,Wunderground v.1.15,2013-01-01 06:10:00,
2013-01-01 01:15:00,59.6,56.7,30.21,SE,141,0.0,0.0,90,0.00,,,0.00,Wunderground v.1.15,2013-01-01 06:15:00,
2013-01-01 01:20:00,59.8,56.9,30.21,SE,141,0.0,0.0,90,0.00,,,0.00,Wunderground v.1.15,2013-01-01 06:20:00,
2013-01-01 01:25:00,59.9,57.0,30.21,SE,141,0.0,0.0,90,0.00,,,0.00,Wunderground v.1.15,2013-01-01 06:25:00,
2013-01-01 01:30:00,60.0,57.1,30.21,SE,141,0.0,0.0,90,0.00,,,0.00,Wunderground v.1.15,2013-01-01 06:30:00,
2013-01-01 01:35:00,60.1,57.2,30.21,SE,141,0.0,0.0,90,0.00,,,0.00,Wunderground v.1.15,2013-01-01 06:35:00,
2013-01-01 01:45:00,60.2,57.3,30.21,SE,141,0.0,0.0,90,0.00,,,0.00,Wunderground v.1.15,2013-01-01 06:45:00,
2013-01-01 01:50:00,60.3,57.4,30.21,SE,141,0.0,0.0,90,0.00,,,0.00,Wunderground v.1.15,2013-01-01 06:50:00,
2013-01-01 01:55:00,60.3,57.0,30.21,SE,134,0.0,0.0,89,0.00,,,0.00,Wunderground v.1.15,2013-01-01 06:55:00,
2013-01-01 02:00:00,60.4,57.1,30.21,SE,134,0.0,0.0,89,0.00,,,0.00,Wunderground v.1.15,2013-01-01 07:00:00,
2013-01-01 02:10:00,60.5,57.2,30.21,SE,134,0.0,0.0,89,0.00,,,0.00,Wunderground v.1.15,2013-01-01 07:10:00,
2013-01-01 02:15:00,60.5,57.2,30.21,SE,134,0.0,0.0,89,0.00,,,0.00,Wunderground v.1.15,2013-01-01 07:15:00,
2013-01-01 02:20:00,60.7,57.4,30.21,East,79,0.0,0.0,89,0.00,,,0.00,Wunderground v.1.15,2013-01-01 07:20:00,
2013-01-01 02:25:00,60.6,57.3,30.20,ENE,78,0.0,0.0,89,0.00,,,0.00,Wunderground v.1.15,2013-01-01 07:25:00,
2013-01-01 02:30:00,60.6,57.7,30.20,ENE,77,0.0,0.0,90,0.00,,,0.00,Wunderground v.1.15,2013-01-01 07:30:00,
2013-01-01 02:35:00,60.6,57.7,30.20,ENE,77,0.0,0.0,90,0.00,,,0.00,Wunderground v.1.15,2013-01-01 07:35:00,
2013-01-01 02:40:00,60.5,57.6,30.20,ENE,77,0.0,0.0,90,0.00,,,0.00,Wunderground v.1.15,2013-01-01 07:40:00,
2013-01-01 02:50:00,60.5,57.6,30.20,ENE,77,0.0,0.0,90,0.00,,,0.00,Wunderground v.1.15,2013-01-01 07:50:00,
2013-01-01 02:55:00,60.5,57.6,30.20,ENE,77,0.0,0.0,90,0.00,,,0.00,Wunderground v.1.15,2013-01-01 07:55:00,
2013-01-01 03:00:00,60.5,57.6,30.21,ENE,77,0.0,0.0,90,0.00,,,0.00,Wunderground v.1.15,2013-01-01 08:00:00,
2013-01-01 03:10:00,60.6,58.0,30.20,ENE,77,0.0,0.0,91,0.00,,,0.00,Wunderground v.1.15,2013-01-01 08:10:00,
2013-01-01 03:15:00,60.7,58.1,30.20,ENE,77,0.0,0.0,91,0.00,,,0.00,Wunderground v.1.15,2013-01-01 08:15:00,
2013-01-01 03:25:00,60.8,58.2,30.21,ENE,77,0.0,0.0,91,0.00,,,0.00,Wunderground v.1.15,2013-01-01 08:25:00,
2013-01-01 03:30:00,60.8,57.8,30.20,ENE,77,0.0,0.0,90,0.00,,,0.00,Wunderground v.1.15,2013-01-01 08:30:00,
2013-01-01 03:35:00,60.8,57.8,30.20,ENE,77,0.0,0.0,90,0.00,,,0.00,Wunderground v.1.15,2013-01-01 08:35:00,
2013-01-01 03:40:00,60.9,57.9,30.19,ENE,77,0.0,0.0,90,0.00,,,0.00,Wunderground v.1.15,2013-01-01 08:40:00,
2013-01-01 03:45:00,60.8,58.2,30.19,ENE,77,0.0,0.0,91,0.00,,,0.00,Wunderground v.1.15,2013-01-01 08:45:00,
2013-01-01 03:50:00,60.7,57.7,30.19,ENE,78,0.0,0.0,90,0.00,,,0.00,Wunderground v.1.15,2013-01-01 08:50:00,
2013-01-01 04:00:00,60.6,58.0,30.18,ENE,78,0.0,0.0,91,0.00,,,0.00,Wunderground v.1.15,2013-01-01 09:00:00,
2013-01-01 04:10:00,60.5,57.9,30.18,ENE,78,0.0,0.0,91,0.00,,,0.00,Wunderground v.1.15,2013-01-01 09:10:00,
2013-01-01 04:15:00,60.5,57.9,30.18,ENE,78,0.0,0.0,91,0.00,,,0.00,Wunderground v.1.15,2013-01-01 09:15:00,
2013-01-01 04:20:00,60.5,57.9,30.18,ENE,78,0.0,0.0,91,0.00,,,0.00,Wunderground v.1.15,2013-01-01 09:20:00,
2013-01-01 04:25:00,60.5,57.9,30.18,ENE,78,0.0,0.0,91,0.00,,,0.00,Wunderground v.1.15,2013-01-01 09:25:00,
2013-01-01 04:35:00,60.5,57.9,30.18,ENE,78,0.0,0.0,91,0.00,,,0.00,Wunderground v.1.15,2013-01-01 09:35:00,
2013-01-01 04:40:00,60.5,57.9,30.18,ENE,78,0.0,0.0,91,0.00,,,0.00,Wunderground v.1.15,2013-01-01 09:40:00,
2013-01-01 04:45:00,60.6,58.0,30.17,ENE,78,0.0,0.0,91,0.00,,,0.00,Wunderground v.1.15,2013-01-01 09:45:00,
2013-01-01 04:50:00,60.6,58.0,30.18,ENE,78,0.0,0.0,91,0.00,,,0.00,Wunderground v.1.15,2013-01-01 09:50:00,
2013-01-01 04:55:00,60.7,58.1,30.17,ENE,78,0.0,0.0,91,0.00,,,0.00,Wunderground v.1.15,2013-01-01 09:55:00,
2013-01-01 05:00:00,60.7,58.1,30.17,ENE,78,0.0,0.0,91,0.00,,,0.00,Wunderground v.1.15,2013-01-01 10:00:00,
2013-01-01 05:10:00,60.9,58.3,30.17,ENE,78,0.0,0.0,91,0.00,,,0.00,Wunderground v.1.15,2013-01-01 10:10:00,
2013-01-01 05:15:00,60.9,58.3,30.17,ENE,78,0.0,0.0,91,0.00,,,0.00,Wunderground v.1.15,2013-01-01 10:15:00,
2013-01-01 05:20:00,61.0,58.0,30.17,East,80,0.0,0.0,90,0.00,,,0.00,Wunderground v.1.15,2013-01-01 10:20:00,
2013-01-01 05:25:00,61.1,58.1,30.17,East,82,0.0,0.0,90,0.00,,,0.00,Wunderground v.1.15,2013-01-01 10:25:00,
2013-01-01 05:30:00,61.2,58.2,30.17,East,83,0.0,0.0,90,0.00,,,0.00,Wunderground v.1.15,2013-01-01 10:30:00,
2013-01-01 05:40:00,61.2,58.2,30.17,East,83,0.0,0.0,90,0.00,,,0.00,Wunderground v.1.15,2013-01-01 10:40:00,
2013-01-01 05:45:00,61.1,58.1,30.16,East,83,0.0,0.0,90,0.00,,,0.00,Wunderground v.1.15,2013-01-01 10:45:00,
2013-01-01 05:50:00,61.1,58.1,30.16,East,83,0.0,0.0,90,0.00,,,0.00,Wunderground v.1.15,2013-01-01 10:50:00,
2013-01-01 05:55:00,61.4,58.1,30.16,East,84,0.0,0.0,89,0.00,,,0.00,Wunderground v.1.15,2013-01-01 10:55:00,
2013-01-01 06:00:00,61.5,58.2,30.15,East,84,0.0,0.0,89,0.00,,,0.00,Wunderground v.1.15,2013-01-01 11:00:00,
2013-01-01 06:10:00,61.8,58.2,30.15,East,84,0.0,1.0,88,0.00,,,0.00,Wunderground v.1.15,2013-01-01 11:10:00,
2013-01-01 06:15:00,61.8,58.2,30.15,East,85,0.0,1.0,88,0.00,,,0.00,Wunderground v.1.15,2013-01-01 11:15:00,
2013-01-01 06:20:00,61.7,58.1,30.15,East,85,0.0,0.0,88,0.00,,,0.00,Wunderground v.1.15,2013-01-01 11:20:00,
2013-01-01 06:25:00,61.6,58.3,30.15,East,85,0.0,0.0,89,0.00,,,0.00,Wunderground v.1.15,2013-01-01 11:25:00,
2013-01-01 06:30:00,61.3,58.0,30.15,East,85,0.0,0.0,89,0.00,,,0.00,Wunderground v.1.15,2013-01-01 11:30:00,
2013-01-01 06:40:00,60.7,57.7,30.15,East,85,0.0,0.0,90,0.00,,,0.00,Wunderground v.1.15,2013-01-01 11:40:00,
2013-01-01 06:45:00,60.5,57.6,30.15,East,85,0.0,0.0,90,0.00,,,0.00,Wunderground v.1.15,2013-01-01 11:45:00,
2013-01-01 06:55:00,60.4,57.5,30.16,East,85,0.0,0.0,90,0.00,,,0.00,Wunderground v.1.15,2013-01-01 11:55:00,
2013-01-01 07:00:00,60.2,57.3,30.15,East,85,0.0,0.0,90,0.00,,,0.00,Wunderground v.1.15,2013-01-01 12:00:00,
2013-01-01 07:10:00,60.4,57.5,30.16,East,85,0.0,0.0,90,0.00,,,0.00,Wunderground v.1.15,2013-01-01 12:10:00,
2013-01-01 07:15:00,60.4,57.5,30.16,East,85,0.0,0.0,90,0.00,,,0.00,Wunderground v.1.15,2013-01-01 12:15:00,
2013-01-01 07:20:00,60.4,57.5,30.17,East,85,0.0,0.0,90,0.00,,,0.00,Wunderground v.1.15,2013-01-01 12:20:00,
2013-01-01 07:25:00,60.4,57.5,30.16,East,85,0.0,0.0,90,0.00,,,0.00,Wunderground v.1.15,2013-01-01 12:25:00,
2013-01-01 07:35:00,60.7,57.7,30.16,East,85,0.0,0.0,90,0.00,,,0.00,Wunderground v.1.15,2013-01-01 12:35:00,
2013-01-01 07:40:00,60.9,57.6,30.17,East,85,0.0,0.0,89,0.00,,,0.00,Wunderground v.1.15,2013-01-01 12:40:00,
2013-01-01 07:45:00,61.0,57.7,30.17,East,85,0.0,0.0,89,0.00,,,0.00,Wunderground v.1.15,2013-01-01 12:45:00,
2013-01-01 07:55:00,60.6,57.7,30.17,East,85,0.0,0.0,90,0.00,,,0.00,Wunderground v.1.15,2013-01-01 12:55:00,
2013-01-01 08:00:00,60.6,57.7,30.17,East,85,0.0,0.0,90,0.00,,,0.00,Wunderground v.1.15,2013-01-01 13:00:00,
2013-01-01 08:10:00,61.0,57.7,30.17,East,85,0.0,0.0,89,0.00,,,0.00,Wunderground v.1.15,2013-01-01 13:10:00,
2013-01-01 08:15:00,61.6,58.3,30.17,East,85,0.0,0.0,89,0.00,,,0.00,Wunderground v.1.15,2013-01-01 13:15:00,
2013-01-01 08:20:00,61.8,58.2,30.17,East,85,0.0,0.0,88,0.00,,,0.00,Wunderground v.1.15,2013-01-01 13:20:00,
2013-01-01 08:30:00,62.5,58.6,30.18,East,85,0.0,0.0,87,0.00,,,0.00,Wunderground v.1.15,2013-01-01 13:30:00,
2013-01-01 08:35:00,62.5,58.6,30.18,East,86,0.0,0.0,87,0.00,,,0.00,Wunderground v.1.15,2013-01-01 13:35:00,
2013-01-01 08:40:00,62.8,58.9,30.17,East,86,0.0,0.0,87,0.00,,,0.00,Wunderground v.1.15,2013-01-01 13:40:00,
2013-01-01 08:45:00,63.5,59.6,30.18,East,86,0.0,0.0,87,0.00,,,0.00,Wunderground v.1.15,2013-01-01 13:45:00,
2013-01-01 08:50:00,64.7,60.1,30.18,East,96,0.0,0.0,85,0.00,,,0.00,Wunderground v.1.15,2013-01-01 13:50:00,
2013-01-01 08:55:00,65.8,60.2,30.18,East,96,1.0,1.0,82,0.00,,,0.00,Wunderground v.1.15,2013-01-01 13:55:00,
2013-01-01 09:00:00,66.6,60.6,30.18,East,97,1.0,1.0,81,0.00,,,0.00,Wunderground v.1.15,2013-01-01 14:00:00,
2013-01-01 09:10:00,67.8,61.0,30.18,East,97,0.0,4.0,79,0.00,,,0.00,Wunderground v.1.15,2013-01-01 14:10:00,
2013-01-01 09:15:00,68.3,61.2,30.18,East,83,0.0,4.0,78,0.00,,,0.00,Wunderground v.1.15,2013-01-01 14:15:00,
2013-01-01 09:25:00,69.7,61.4,30.18,ESE,103,0.0,4.0,75,0.00,,,0.00,Wunderground v.1.15,2013-01-01 14:25:00,
2013-01-01 09:30:00,70.6,61.5,30.18,ESE,114,0.0,4.0,73,0.00,,,0.00,Wunderground v.1.15,2013-01-01 14:30:00,
2013-01-01 09:35:00,71.0,61.5,30.18,East,93,0.0,4.0,72,0.00,,,0.00,Wunderground v.1.15,2013-01-01 14:35:00,
2013-01-01 09:40:00,71.4,61.5,30.18,North,355,0.0,4.0,71,0.00,,,0.00,Wunderground v.1.15,2013-01-01 14:40:00,
2013-01-01 09:45:00,71.9,61.2,30.17,NE,53,1.0,4.0,69,0.00,,,0.00,Wunderground v.1.15,2013-01-01 14:45:00,
2013-01-01 09:50:00,72.7,61.1,30.17,NNE,27,1.0,4.0,67,0.00,,,0.00,Wunderground v.1.15,2013-01-01 14:50:00,
2013-01-01 09:55:00,73.4,60.9,30.17,NNW,338,2.0,4.0,65,0.00,,,0.00,Wunderground v.1.15,2013-01-01 14:55:00,
2013-01-01 10:00:00,73.7,60.8,30.17,NNW,347,3.0,3.0,64,0.00,,,0.00,Wunderground v.1.15,2013-01-01 15:00:00,
2013-01-01 10:10:00,74.7,60.8,30.17,NNE,25,3.0,7.0,62,0.00,,,0.00,Wunderground v.1.15,2013-01-01 15:10:00,
2013-01-01 10:15:00,74.8,60.9,30.17,North,360,3.0,7.0,62,0.00,,,0.00,Wunderground v.1.15,2013-01-01 15:15:00,
2013-01-01 10:20:00,75.0,60.6,30.17,NNE,12,4.0,7.0,61,0.00,,,0.00,Wunderground v.1.15,2013-01-01 15:20:00,
2013-01-01 10:25:00,75.1,60.3,30.17,NNE,15,4.0,7.0,60,0.00,,,0.00,Wunderground v.1.15,2013-01-01 15:25:00,
2013-01-01 10:30:00,75.3,60.5,30.17,NNE,24,5.0,5.0,60,0.00,,,0.00,Wunderground v.1.15,2013-01-01 15:30:00,
2013-01-01 10:40:00,75.6,59.3,30.17,SSW,213,4.0,4.0,57,0.00,,,0.00,Wunderground v.1.15,2013-01-01 15:40:00,
2013-01-01 10:45:00,75.8,60.0,30.17,NW,319,5.0,6.0,58,0.00,,,0.00,Wunderground v.1.15,2013-01-01 15:45:00,
2013-01-01 10:50:00,76.0,60.2,30.17,NNW,344,5.0,5.0,58,0.00,,,0.00,Wunderground v.1.15,2013-01-01 15:50:00,
2013-01-01 10:55:00,76.4,60.0,30.16,WNW,297,4.0,6.0,57,0.00,,,0.00,Wunderground v.1.15,2013-01-01 15:55:00,
2013-01-01 11:00:00,76.7,59.8,30.16,SE,127,4.0,13.0,56,0.00,,,0.00,Wunderground v.1.15,2013-01-01 16:00:00,
2013-01-01 11:10:00,76.9,60.0,30.15,North,5,6.0,6.0,56,0.00,,,0.00,Wunderground v.1.15,2013-01-01 16:10:00,
2013-01-01 11:15:00,76.7,59.8,30.15,NE,38,5.0,13.0,56,0.00,,,0.00,Wunderground v.1.15,2013-01-01 16:15:00,
2013-01-01 11:25:00,76.9,60.0,30.15,NNW,327,4.0,13.0,56,0.00,,,0.00,Wunderground v.1.15,2013-01-01 16:25:00,
2013-01-01 11:30:00,77.3,59.9,30.15,SE,145,5.0,13.0,55,0.00,,,0.00,Wunderground v.1.15,2013-01-01 16:30:00,
2013-01-01 11:40:00,77.6,60.2,30.14,South,169,5.0,13.0,55,0.00,,,0.00,Wunderground v.1.15,2013-01-01 16:40:00,
2013-01-01 11:50:00,78.0,60.0,30.13,South,173,6.0,6.0,54,0.00,,,0.00,Wunderground v.1.15,2013-01-01 16:50:00,
2013-01-01 11:55:00,78.1,60.1,30.13,SSE,156,6.0,11.0,54,0.00,,,0.00,Wunderground v.1.15,2013-01-01 16:55:00,
2013-01-01 12:00:00,78.0,60.0,30.13,NW,323,6.0,7.0,54,0.00,,,0.00,Wunderground v.1.15,2013-01-01 17:00:00,
2013-01-01 12:10:00,78.3,60.3,30.13,NNW,342,6.0,6.0,54,0.00,,,0.00,Wunderground v.1.15,2013-01-01 17:10:00,
2013-01-01 12:15:00,78.6,60.0,30.13,SSW,192,6.0,7.0,53,0.00,,,0.00,Wunderground v.1.15,2013-01-01 17:15:00,
2013-01-01 12:20:00,78.8,60.2,30.12,South,177,5.0,7.0,53,0.00,,,0.00,Wunderground v.1.15,2013-01-01 17:20:00,
2013-01-01 12:25:00,78.8,59.7,30.13,NW,318,6.0,7.0,52,0.00,,,0.00,Wunderground v.1.15,2013-01-01 17:25:00,
2013-01-01 12:35:00,79.3,60.1,30.12,ENE,72,5.0,7.0,52,0.00,,,0.00,Wunderground v.1.15,2013-01-01 17:35:00,
2013-01-01 12:40:00,79.7,60.5,30.11,NE,42,3.0,7.0,52,0.00,,,0.00,Wunderground v.1.15,2013-01-01 17:40:00,
2013-01-01 12:45:00,79.9,60.7,30.11,East,86,3.0,7.0,52,0.00,,,0.00,Wunderground v.1.15,2013-01-01 17:45:00,
2013-01-01 12:55:00,80.0,60.2,30.10,WNW,298,4.0,7.0,51,0.00,,,0.00,Wunderground v.1.15,2013-01-01 17:55:00,
2013-01-01 13:00:00,80.2,60.4,30.10,SW,236,4.0,4.0,51,0.00,,,0.00,Wunderground v.1.15,2013-01-01 18:00:00,
2013-01-01 13:10:00,80.3,60.5,30.09,ESE,105,4.0,4.0,51,0.00,,,0.00,Wunderground v.1.15,2013-01-01 18:10:00,
2013-01-01 13:15:00,80.5,60.7,30.09,WSW,246,4.0,9.0,51,0.00,,,0.00,Wunderground v.1.15,2013-01-01 18:15:00,
2013-01-01 13:20:00,80.7,60.9,30.09,East,85,3.0,9.0,51,0.00,,,0.00,Wunderground v.1.15,2013-01-01 18:20:00,
2013-01-01 13:30:00,80.9,60.5,30.08,SSW,194,4.0,4.0,50,0.00,,,0.00,Wunderground v.1.15,2013-01-01 18:30:00,
2013-01-01 13:35:00,80.9,60.5,30.08,South,170,4.0,9.0,50,0.00,,,0.00,Wunderground v.1.15,2013-01-01 18:35:00,
2013-01-01 13:40:00,81.0,61.2,30.07,SW,229,3.0,9.0,51,0.00,,,0.00,Wunderground v.1.15,2013-01-01 18:40:00,
2013-01-01 13:45:00,81.0,60.6,30.07,SSW,206,3.0,9.0,50,0.00,,,0.00,Wunderground v.1.15,2013-01-01 18:45:00,
2013-01-01 13:50:00,80.9,61.1,30.07,South,189,4.0,4.0,51,0.00,,,0.00,Wunderground v.1.15,2013-01-01 18:50:00,
2013-01-01 14:00:00,81.4,61.0,30.07,SSE,160,2.0,9.0,50,0.00,,,0.00,Wunderground v.1.15,2013-01-01 19:00:00,
2013-01-01 14:10:00,81.4,60.4,30.07,WNW,285,3.0,9.0,49,0.00,,,0.00,Wunderground v.1.15,2013-01-01 19:10:00,
2013-01-01 14:15:00,81.4,61.0,30.07,NE,49,3.0,9.0,50,0.00,,,0.00,Wunderground v.1.15,2013-01-01 19:15:00,
2013-01-01 14:20:00,81.4,61.0,30.07,East,90,2.0,9.0,50,0.00,,,0.00,Wunderground v.1.15,2013-01-01 19:20:00,
2013-01-01 14:30:00,81.8,61.3,30.07,NNW,333,3.0,3.0,50,0.00,,,0.00,Wunderground v.1.15,2013-01-01 19:30:00,
2013-01-01 14:35:00,82.1,61.6,30.07,South,185,2.0,9.0,50,0.00,,,0.00,Wunderground v.1.15,2013-01-01 19:35:00,
2013-01-01 14:40:00,81.9,61.4,30.07,West,269,2.0,2.0,50,0.00,,,0.00,Wunderground v.1.15,2013-01-01 19:40:00,
2013-01-01 14:50:00,81.4,61.5,30.07,WSW,241,2.0,9.0,51,0.00,,,0.00,Wunderground v.1.15,2013-01-01 19:50:00,
2013-01-01 14:55:00,81.7,60.7,30.06,SSE,157,3.0,9.0,49,0.00,,,0.00,Wunderground v.1.15,2013-01-01 19:55:00,
2013-01-01 15:00:00,82.0,61.0,30.06,South,174,2.0,2.0,49,0.00,,,0.00,Wunderground v.1.15,2013-01-01 20:00:00,
2013-01-01 15:10:00,81.8,60.2,30.06,WNW,302,2.0,5.0,48,0.00,,,0.00,Wunderground v.1.15,2013-01-01 20:10:00,
2013-01-01 15:15:00,81.8,60.8,30.06,South,187,2.0,5.0,49,0.00,,,0.00,Wunderground v.1.15,2013-01-01 20:15:00,
2013-01-01 15:20:00,81.9,60.9,30.06,South,175,2.0,2.0,49,0.00,,,0.00,Wunderground v.1.15,2013-01-01 20:20:00,
2013-01-01 15:25:00,82.1,61.0,30.06,SE,140,2.0,2.0,49,0.00,,,0.00,Wunderground v.1.15,2013-01-01 20:25:00,
2013-01-01 15:30:00,81.8,60.8,30.06,East,96,2.0,2.0,49,0.00,,,0.00,Wunderground v.1.15,2013-01-01 20:30:00,
2013-01-01 15:40:00,82.0,61.0,30.06,East,96,0.0,2.0,49,0.00,,,0.00,Wunderground v.1.15,2013-01-01 20:40:00,
2013-01-01 15:45:00,82.2,61.1,30.06,SE,128,0.0,5.0,49,0.00,,,0.00,Wunderground v.1.15,2013-01-01 20:45:00,
2013-01-01 15:55:00,82.7,61.0,30.06,South,190,1.0,2.0,48,0.00,,,0.00,Wunderground v.1.15,2013-01-01 20:55:00,
2013-01-01 16:00:00,82.5,60.8,30.06,South,190,0.0,2.0,48,0.00,,,0.00,Wunderground v.1.15,2013-01-01 21:00:00,
2013-01-01 16:10:00,80.9,61.1,30.06,SSW,196,1.0,1.0,51,0.00,,,0.00,Wunderground v.1.15,2013-01-01 21:10:00,
2013-01-01 16:15:00,80.4,61.2,30.06,SSW,199,0.0,2.0,52,0.00,,,0.00,Wunderground v.1.15,2013-01-01 21:15:00,
2013-01-01 16:20:00,80.5,61.3,30.06,SSW,199,0.0,2.0,52,0.00,,,0.00,Wunderground v.1.15,2013-01-01 21:20:00,
2013-01-01 16:25:00,81.0,60.6,30.06,SSW,199,0.0,2.0,50,0.00,,,0.00,Wunderground v.1.15,2013-01-01 21:25:00,
2013-01-01 16:30:00,81.2,60.8,30.06,SSW,199,0.0,2.0,50,0.00,,,0.00,Wunderground v.1.15,2013-01-01 21:30:00,
2013-01-01 16:35:00,81.2,60.8,30.06,SSW,208,0.0,3.0,50,0.00,,,0.00,Wunderground v.1.15,2013-01-01 21:35:00,
2013-01-01 16:40:00,80.4,61.2,30.06,SSW,209,0.0,2.0,52,0.00,,,0.00,Wunderground v.1.15,2013-01-01 21:40:00,
2013-01-01 16:50:00,79.2,61.6,30.06,SSW,208,0.0,2.0,55,0.00,,,0.00,Wunderground v.1.15,2013-01-01 21:50:00,
2013-01-01 16:55:00,78.8,61.3,30.06,SSW,208,0.0,2.0,55,0.00,,,0.00,Wunderground v.1.15,2013-01-01 21:55:00,
2013-01-01 17:00:00,78.8,61.8,30.06,SSW,208,0.0,0.0,56,0.00,,,0.00,Wunderground v.1.15,2013-01-01 22:00:00,
2013-01-01 17:10:00,79.2,61.6,30.06,SSW,208,0.0,0.0,55,0.00,,,0.00,Wunderground v.1.15,2013-01-01 22:10:00,
2013-01-01 17:15:00,79.2,62.1,30.06,SSW,208,0.0,0.0,56,0.00,,,0.00,Wunderground v.1.15,2013-01-01 22:15:00,
2013-01-01 17:25:00,78.3,62.3,30.06,SSW,210,0.0,0.0,58,0.00,,,0.00,Wunderground v.1.15,2013-01-01 22:25:00,
2013-01-01 17:30:00,78.0,62.5,30.06,SW,217,0.0,0.0,59,0.00,,,0.00,Wunderground v.1.15,2013-01-01 22:30:00,
2013-01-01 17:35:00,77.5,62.5,30.06,SW,223,0.0,0.0,60,0.00,,,0.00,Wunderground v.1.15,2013-01-01 22:35:00,
2013-01-01 17:40:00,77.1,62.1,30.06,SW,225,0.0,0.0,60,0.00,,,0.00,Wunderground v.1.15,2013-01-01 22:40:00,
2013-01-01 17:45:00,76.7,62.2,30.06,SW,226,0.0,0.0,61,0.00,,,0.00,Wunderground v.1.15,2013-01-01 22:45:00,
2013-01-01 17:55:00,75.9,62.4,30.06,SW,231,0.0,0.0,63,0.00,,,0.00,Wunderground v.1.15,2013-01-01 22:55:00,
2013-01-01 18:00:00,75.5,62.5,30.06,SW,231,0.0,0.0,64,0.00,,,0.00,Wunderground v.1.15,2013-01-01 23:00:00,
2013-01-01 18:10:00,74.7,62.6,30.06,SW,231,0.0,0.0,66,0.00,,,0.00,Wunderground v.1.15,2013-01-01 23:10:00,
2013-01-01 18:15:00,74.3,62.6,30.06,SW,231,0.0,0.0,67,0.00,,,0.00,Wunderground v.1.15,2013-01-01 23:15:00,
2013-01-01 18:20:00,74.0,62.8,30.06,SW,231,0.0,0.0,68,0.00,,,0.00,Wunderground v.1.15,2013-01-01 23:20:00,
2013-01-01 18:30:00,73.5,62.7,30.07,SW,231,0.0,0.0,69,0.00,,,0.00,Wunderground v.1.15,2013-01-01 23:30:00,
2013-01-01 18:35:00,73.3,62.5,30.07,SW,232,0.0,0.0,69,0.00,,,0.00,Wunderground v.1.15,2013-01-01 23:35:00,
2013-01-01 18:40:00,73.1,62.7,30.07,SW,232,0.0,0.0,70,0.00,,,0.00,Wunderground v.1.15,2013-01-01 23:40:00,
2013-01-01 18:45:00,72.8,62.8,30.07,SW,232,0.0,0.0,71,0.00,,,0.00,Wunderground v.1.15,2013-01-01 23:45:00,
2013-01-01 18:50:00,72.5,63.0,30.07,SW,232,0.0,0.0,72,0.00,,,0.00,Wunderground v.1.15,2013-01-01 23:50:00,
2013-01-01 18:55:00,72.3,62.8,30.08,SW,232,0.0,0.0,72,0.00,,,0.00,Wunderground v.1.15,2013-01-01 23:55:00,
2013-01-01 19:00:00,72.1,62.6,30.08,SW,232,0.0,0.0,72,0.00,,,0.00,Wunderground v.1.15,2013-01-02 00:00:00,
2013-01-01 19:10:00,71.3,62.6,30.08,SW,232,0.0,0.0,74,0.00,,,0.00,Wunderground v.1.15,2013-01-02 00:10:00,
2013-01-01 19:15:00,70.9,62.6,30.08,SW,232,0.0,0.0,75,0.00,,,0.00,Wunderground v.1.15,2013-01-02 00:15:00,
2013-01-01 19:20:00,70.7,62.8,30.08,SW,232,0.0,0.0,76,0.00,,,0.00,Wunderground v.1.15,2013-01-02 00:20:00,
2013-01-01 19:25:00,70.6,62.7,30.08,SW,232,0.0,0.0,76,0.00,,,0.00,Wunderground v.1.15,2013-01-02 00:25:00,
2013-01-01 19:30:00,70.4,62.5,30.08,SW,232,0.0,0.0,76,0.00,,,0.00,Wunderground v.1.15,2013-01-02 00:30:00,
2013-01-01 19:40:00,70.2,62.6,30.08,SW,232,0.0,0.0,77,0.00,,,0.00,Wunderground v.1.15,2013-01-02 00:40:00,
2013-01-01 19:45:00,70.0,62.5,30.08,SW,232,0.0,0.0,77,0.00,,,0.00,Wunderground v.1.15,2013-01-02 00:45:00,
2013-01-01 19:50:00,69.8,62.3,30.08,SW,232,0.0,0.0,77,0.00,,,0.00,Wunderground v.1.15,2013-01-02 00:50:00,
2013-01-01 19:55:00,69.8,62.3,30.08,SW,232,0.0,0.0,77,0.00,,,0.00,Wunderground v.1.15,2013-01-02 00:55:00,
2013-01-01 20:00:00,69.8,62.3,30.08,SW,232,0.0,0.0,77,0.00,,,0.00,Wunderground v.1.15,2013-01-02 01:00:00,
2013-01-01 20:10:00,69.4,62.6,30.08,SW,232,0.0,0.0,79,0.00,,,0.00,Wunderground v.1.15,2013-01-02 01:10:00,
2013-01-01 20:15:00,68.8,62.4,30.08,SW,232,0.0,0.0,80,0.00,,,0.00,Wunderground v.1.15,2013-01-02 01:15:00,
2013-01-01 20:20:00,68.5,62.1,30.08,SW,232,0.0,0.0,80,0.00,,,0.00,Wunderground v.1.15,2013-01-02 01:20:00,
2013-01-01 20:25:00,68.5,62.4,30.09,SW,232,0.0,0.0,81,0.00,,,0.00,Wunderground v.1.15,2013-01-02 01:25:00,
2013-01-01 20:30:00,68.3,62.2,30.09,SW,232,0.0,0.0,81,0.00,,,0.00,Wunderground v.1.15,2013-01-02 01:30:00,
2013-01-01 20:35:00,68.1,62.0,30.09,SW,232,0.0,0.0,81,0.00,,,0.00,Wunderground v.1.15,2013-01-02 01:35:00,
2013-01-01 20:40:00,67.9,62.2,30.09,SW,232,0.0,0.0,82,0.00,,,0.00,Wunderground v.1.15,2013-01-02 01:40:00,
2013-01-01 20:45:00,67.7,62.0,30.09,SW,232,0.0,0.0,82,0.00,,,0.00,Wunderground v.1.15,2013-01-02 01:45:00,
2013-01-01 20:50:00,67.6,62.3,30.09,SW,232,0.0,0.0,83,0.00,,,0.00,Wunderground v.1.15,2013-01-02 01:50:00,
2013-01-01 20:55:00,67.6,62.3,30.09,SW,232,0.0,0.0,83,0.00,,,0.00,Wunderground v.1.15,2013-01-02 01:55:00,
2013-01-01 21:00:00,67.6,62.3,30.09,SW,232,0.0,0.0,83,0.00,,,0.00,Wunderground v.1.15,2013-01-02 02:00:00,
2013-01-01 21:10:00,67.0,62.0,30.09,SW,232,0.0,0.0,84,0.00,,,0.00,Wunderground v.1.15,2013-01-02 02:10:00,
2013-01-01 21:20:00,66.2,61.6,30.10,SW,232,0.0,0.0,85,0.00,,,0.00,Wunderground v.1.15,2013-01-02 02:20:00,
2013-01-01 21:25:00,66.1,61.8,30.09,SW,232,0.0,0.0,86,0.00,,,0.00,Wunderground v.1.15,2013-01-02 02:25:00,
2013-01-01 21:30:00,66.1,61.8,30.09,SW,232,0.0,0.0,86,0.00,,,0.00,Wunderground v.1.15,2013-01-02 02:30:00,
2013-01-01 21:35:00,65.9,61.6,30.09,SW,232,0.0,0.0,86,0.00,,,0.00,Wunderground v.1.15,2013-01-02 02:35:00,
2013-01-01 21:40:00,65.9,61.9,30.10,SW,232,0.0,0.0,87,0.00,,,0.00,Wunderground v.1.15,2013-01-02 02:40:00,
2013-01-01 21:45:00,66.2,61.9,30.10,SW,232,0.0,0.0,86,0.00,,,0.00,Wunderground v.1.15,2013-01-02 02:45:00,
2013-01-01 21:55:00,66.2,61.6,30.10,SW,232,0.0,0.0,85,0.00,,,0.00,Wunderground v.1.15,2013-01-02 02:55:00,
2013-01-01 22:00:00,66.1,61.5,30.10,SW,232,0.0,0.0,85,0.00,,,0.00,Wunderground v.1.15,2013-01-02 03:00:00,
2013-01-01 22:10:00,65.9,61.6,30.10,SW,232,0.0,0.0,86,0.00,,,0.00,Wunderground v.1.15,2013-01-02 03:10:00,
2013-01-01 22:15:00,65.9,61.9,30.09,SW,232,0.0,0.0,87,0.00,,,0.00,Wunderground v.1.15,2013-01-02 03:15:00,
2013-01-01 22:20:00,65.9,61.6,30.09,SW,232,0.0,0.0,86,0.00,,,0.00,Wunderground v.1.15,2013-01-02 03:20:00,
2013-01-01 22:30:00,65.9,61.6,30.09,SW,232,0.0,0.0,86,0.00,,,0.00,Wunderground v.1.15,2013-01-02 03:30:00,
2013-01-01 22:35:00,65.8,61.8,30.09,SW,232,0.0,0.0,87,0.00,,,0.00,Wunderground v.1.15,2013-01-02 03:35:00,
2013-01-01 22:40:00,65.6,61.6,30.09,SW,232,0.0,0.0,87,0.00,,,0.00,Wunderground v.1.15,2013-01-02 03:40:00,
2013-01-01 22:45:00,65.6,61.6,30.09,SW,232,0.0,0.0,87,0.00,,,0.00,Wunderground v.1.15,2013-01-02 03:45:00,
2013-01-01 22:50:00,65.4,61.8,30.09,SW,232,0.0,0.0,88,0.00,,,0.00,Wunderground v.1.15,2013-01-02 03:50:00,
2013-01-01 23:00:00,65.1,61.5,30.09,SW,232,0.0,0.0,88,0.00,,,0.00,Wunderground v.1.15,2013-01-02 04:00:00,
2013-01-01 23:10:00,64.9,61.6,30.09,SW,232,0.0,0.0,89,0.00,,,0.00,Wunderground v.1.15,2013-01-02 04:10:00,
2013-01-01 23:15:00,64.9,61.6,30.09,SW,232,0.0,0.0,89,0.00,,,0.00,Wunderground v.1.15,2013-01-02 04:15:00,
2013-01-01 23:20:00,64.9,61.6,30.08,SW,232,0.0,0.0,89,0.00,,,0.00,Wunderground v.1.15,2013-01-02 04:20:00,
2013-01-01 23:25:00,64.9,61.6,30.08,SW,232,0.0,0.0,89,0.00,,,0.00,Wunderground v.1.15,2013-01-02 04:25:00,
2013-01-01 23:35:00,65.3,62.0,30.08,SW,232,0.0,0.0,89,0.00,,,0.00,Wunderground v.1.15,2013-01-02 04:35:00,
2013-01-01 23:40:00,65.4,61.8,30.08,SW,232,0.0,0.0,88,0.00,,,0.00,Wunderground v.1.15,2013-01-02 04:40:00,
2013-01-01 23:45:00,65.3,61.7,30.08,SW,232,0.0,0.0,88,0.00,,,0.00,Wunderground v.1.15,2013-01-02 04:45:00,
2013-01-01 23:50:00,65.2,61.6,30.07,SW,232,0.0,0.0,88,0.00,,,0.00,Wunderground v.1.15,2013-01-02 04:50:00,
2013-01-01 23:55:00,65.0,61.4,30.08,SW,232,0.0,0.0,88,0.00,,,0.00,Wunderground v.1.15,2013-01-02 04:55:00,